Regional Weather Roundup
Issued by NWS Raleigh/Durham, NC

Current Version | Previous Version | Text Only | Print | Product List | Glossary On
Versions: 1 2 3 4 5 6 7 8 9 10 11 12 13 14 15 16 17 18 19 20 21 22 23 24 25 26 27
000 ASUS42 KRAH 252310 RWRRAH NORTH CAROLINA WEATHER ROUNDUP NATIONAL WEATHER SERVICE RALEIGH NC 700 PM EDT SAT JUN 25 2022 NOTE: "FAIR" INDICATES FEW OR NO CLOUDS BELOW 12,000 FEET WITH NO SIGNIFICANT WEATHER AND/OR OBSTRUCTIONS TO VISIBILITY. NCZ001-053-055-056-065-067-260000- WESTERN NORTH CAROLINA CITY SKY/WX TMP DP RH WIND PRES REMARKS ASHEVILLE PTSUNNY 76 63 64 S6 30.17S JEFFERSON CLOUDY 71 62 73 CALM 30.24R MORGANTON PTSUNNY 83 67 59 CALM 30.16S HICKORY PTSUNNY 83 65 54 S7 30.11S WILKESBORO PTSUNNY 77 72 83 CALM 30.17S RUTHERFORDTON PTSUNNY 79 64 61 CALM 30.13S MOUNT AIRY PTSUNNY 83 66 54 SW3 30.14R BOONE PTSUNNY 72 62 69 CALM 30.24R $$ NCZ021-022-025-041-071-084-088-260000- CENTRAL NORTH CAROLINA CITY SKY/WX TMP DP RH WIND PRES REMARKS CHARLOTTE PTSUNNY 86 65 49 SW5 30.10S GREENSBORO PTSUNNY 85 63 47 S8 30.09F WINSTON-SALEM PTSUNNY 84 66 54 E6 30.11S RALEIGH-DURHAM MOSUNNY 89 60 37 E8 30.09R FORT BRAGG SUNNY 91 54 28 E8 30.05S FAYETTEVILLE SUNNY 91 56 30 E10 30.06S BURLINGTON MOSUNNY 87 61 41 E6 30.08F ROXBORO SUNNY 86 59 39 SE5 30.12S HENDERSON SUNNY 85 57 38 E5 30.10S LOUISBURG SUNNY 86 61 42 E5 30.13R LAURINBURG SUNNY 94 55 26 E8 30.06S $$ NCZ011-015-027-028-043-044-047-080-103-260000- NORTHEASTERN NORTH CAROLINA CITY SKY/WX TMP DP RH WIND PRES REMARKS ROCKY MT-WILSO SUNNY 89 52 28 NE7 30.10R GREENVILLE SUNNY 88 55 33 E6 30.09R WASHINGTON SUNNY 82 64 54 E12 30.13R ELIZABETH CITY SUNNY 78 58 49 SE10 30.14R MANTEO SUNNY 75 64 69 E9 30.15R CAPE HATTERAS SUNNY 80 68 66 SE7 30.13R $$ NCZ078-087-090-091-093-098-101-260000- SOUTHEASTERN NORTH CAROLINA CITY SKY/WX TMP DP RH WIND PRES REMARKS LUMBERTON SUNNY 91 55 29 SE8 30.06S GOLDSBORO MOSUNNY 88 45 22 E6 30.06S KINSTON SUNNY 88 55 33 E5 30.10S KENANSVILLE SUNNY 86 57 37 MISG 30.09S NEW BERN SUNNY 82 67 60 SE8 30.12R CHERRY POINT PTSUNNY 81 67 62 E13 30.12S BEAUFORT SUNNY 81 68 64 E8 30.12S JACKSONVILLE SUNNY 80 69 69 SE12 30.10R WILMINGTON SUNNY 82 66 58 E12 30.10R $$

USA.gov is the U.S. government's official web portal to all federal, state and local government web resources and services.